Kerkyra, Greece

7:19 AM EEST on October 23, 2018 (GMT +0300)
Ioannis Kapodistrias

Weather History for LGKR - October, 2018

Change the Weather History Date:

Friday, October 12, 2018

  Actual Average Record
Temperature  
Mean Temperature 69 °F -  
Max Temperature 79 °F 71 °F 86 °F (2001)
Min Temperature 59 °F 54 °F 51 °F (2003)
Cooling Degree Days 4    
Growing Degree Days 19 (Base 50)    
Moisture  
Dew Point 61 °F    
Average Humidity 78    
Maximum Humidity 100    
Minimum Humidity 44    
Precipitation  
Precipitation 0.00 in 0.21 in - ()
Sea Level Pressure  
Sea Level Pressure 30.14 in    
Wind  
Wind Speed 1 mph ()    
Max Wind Speed 6 mph    
Max Gust Speed -    
Visibility 6.6 miles    
Events      
Averages and records for this station are not official NWS values.
T = Trace of Precipitation, MM = Missing Value Source: Averaged Metar Reports

Daily Weather History Graph

Daily Weather History Graph

Search for Another Location

Airport or City:

Astronomy

Oct. 12, 2018 Rise Set
Actual Time 7:47 AM EEST 7:05 PM EEST
Civil Twilight 7:20 AM EEST 7:32 PM EEST
Nautical Twilight 6:48 AM EEST 8:04 PM EEST
Astronomical Twilight 6:17 AM EEST 8:35 PM EEST
Moon 11:02 AM EEST (10/12) 9:30 PM EEST (10/12)
Length of Visible Light 12h 12m
Length of Day
11h 18m
Waxing Crescent, 12% of the Moon is Illuminated
Oct 12
Waxing Crescent
Oct 16
First Quarter
Oct 24
Full
Oct 31
Last Quarter
Nov 7
New

Hourly Weather History & Observations

Time (EEST) Temp. Dew Point Humidity Pressure Visibility Wind Dir Wind Speed Gust Speed Precip Events Conditions
12:20 AM 64.4 °F 59.0 °F 83% 30.15 in 6.2 mi Calm Calm - N/A   Partly Cloudy
12:50 AM 64.4 °F 59.0 °F 83% 30.15 in 6.2 mi Calm Calm - N/A   Partly Cloudy
1:20 AM 64.4 °F 59.0 °F 83% 30.15 in 6.2 mi Calm Calm - N/A   Partly Cloudy
1:50 AM 62.6 °F 60.8 °F 94% 30.15 in 6.2 mi Calm Calm - N/A   Partly Cloudy
2:20 AM 62.6 °F 60.8 °F 94% 30.15 in 6.2 mi Calm Calm - N/A   Partly Cloudy
2:50 AM 60.8 °F 60.8 °F 100% 30.15 in 6.2 mi Calm Calm - N/A   Partly Cloudy
3:00 AM 61 °F 60 °F 95% 30.16 in 6 mi Calm Calm - -   Scattered Clouds
3:20 AM 60.8 °F 60.8 °F 100% 30.15 in 6.2 mi Calm Calm - N/A   Partly Cloudy
3:50 AM 60.8 °F 59.0 °F 94% 30.15 in 6.2 mi Calm Calm - N/A   Partly Cloudy
4:20 AM 60.8 °F 59.0 °F 94% 30.15 in 6.2 mi Calm Calm - N/A   Partly Cloudy
4:50 AM 60.8 °F 59.0 °F 94% 30.15 in 6.2 mi Calm Calm - N/A   Partly Cloudy
5:20 AM 60.8 °F 59.0 °F 94% 30.15 in 6.2 mi Calm Calm - N/A   Partly Cloudy
5:50 AM 60.8 °F 59.0 °F 94% 30.15 in 6.2 mi Calm Calm - N/A   Partly Cloudy
6:00 AM 60 °F 59 °F 96% 30.16 in 6 mi Calm Calm - -   Scattered Clouds
6:20 AM 60.8 °F 59.0 °F 94% 30.15 in 6.2 mi Calm Calm - N/A   Partly Cloudy
6:50 AM 60.8 °F 59.0 °F 94% 30.15 in 6.2 mi Calm Calm - N/A   Partly Cloudy
7:20 AM 60.8 °F 59.0 °F 94% 30.15 in 6.2 mi Calm Calm - N/A   Partly Cloudy
7:50 AM 59.0 °F 57.2 °F 94% 30.15 in - Calm Calm - N/A   Clear
8:20 AM 60.8 °F 57.2 °F 88% 30.15 in - Calm Calm - N/A   Clear
8:50 AM 60.8 °F 57.2 °F 88% 30.15 in 6.2 mi Calm Calm - N/A   Partly Cloudy
9:00 AM 60 °F 58 °F 89% 30.17 in 12 mi Calm Calm - -   Scattered Clouds
9:20 AM 60.8 °F 57.2 °F 88% 30.15 in 6.2 mi Calm Calm - N/A   Partly Cloudy
9:50 AM 64.4 °F 57.2 °F 77% 30.15 in 6.2 mi SSE 2.3 mph - N/A   Partly Cloudy
10:20 AM 66.2 °F 59.0 °F 78% 30.15 in 6.2 mi Calm Calm - N/A   Partly Cloudy
10:50 AM 69.8 °F 62.6 °F 78% 30.15 in - NNW 2.3 mph - N/A   Clear
11:20 AM 71.6 °F 62.6 °F 73% 30.15 in - North 4.6 mph - N/A   Clear
11:50 AM 73.4 °F 62.6 °F 69% 30.15 in 6.2 mi ENE 2.3 mph - N/A   Partly Cloudy
12:00 PM 74 °F 63 °F 61% 30.18 in 12 mi ENE 2.3 mph - -   Scattered Clouds
12:20 PM 75.2 °F 62.6 °F 65% 30.15 in 6.2 mi North 2.3 mph - N/A   Partly Cloudy
12:50 PM 77.0 °F 64.4 °F 65% 30.15 in 6.2 mi NNW 3.5 mph - N/A   Partly Cloudy
1:20 PM 77.0 °F 64.4 °F 65% 30.15 in 6.2 mi WNW 3.5 mph - N/A   Partly Cloudy
1:50 PM 77.0 °F 66.2 °F 69% 30.15 in 6.2 mi Variable 2.3 mph - N/A   Partly Cloudy
2:20 PM 77.0 °F 66.2 °F 69% 30.15 in 6.2 mi NNW 2.3 mph - N/A   Partly Cloudy
2:50 PM 77.0 °F 59.0 °F 54% 30.15 in 6.2 mi SW 3.5 mph - N/A   Partly Cloudy
3:00 PM 77 °F 59 °F 44% 30.16 in 12 mi SW 3.5 mph - -   Scattered Clouds
3:20 PM 77.0 °F 59.0 °F 54% 30.15 in 6.2 mi WSW 3.5 mph - N/A   Partly Cloudy
3:50 PM 78.8 °F 60.8 °F 54% 30.12 in 6.2 mi West 4.6 mph - N/A   Partly Cloudy
4:20 PM 78.8 °F 60.8 °F 54% 30.12 in 6.2 mi West 5.8 mph - N/A   Partly Cloudy
4:50 PM 78.8 °F 60.8 °F 54% 30.12 in 6.2 mi WSW 3.5 mph - N/A   Partly Cloudy
5:20 PM 77.0 °F 60.8 °F 57% 30.12 in 6.2 mi West 3.5 mph - N/A   Partly Cloudy
5:50 PM 75.2 °F 62.6 °F 65% 30.12 in 6.2 mi West 4.6 mph - N/A   Partly Cloudy
6:00 PM 76 °F 63 °F 55% 30.14 in 12 mi West 4.6 mph - -   Scattered Clouds
6:20 PM 75.2 °F 62.6 °F 65% 30.12 in 6.2 mi WSW 3.5 mph - N/A   Partly Cloudy
6:50 PM 73.4 °F 60.8 °F 65% 30.12 in 6.2 mi West 2.3 mph - N/A   Partly Cloudy
7:20 PM 71.6 °F 60.8 °F 69% 30.12 in 6.2 mi Calm Calm - N/A   Partly Cloudy
7:50 PM 71.6 °F 62.6 °F 73% 30.12 in 6.2 mi Calm Calm - N/A   Partly Cloudy
8:20 PM 69.8 °F 62.6 °F 78% 30.12 in 6.2 mi Calm Calm - N/A   Partly Cloudy
8:50 PM 68.0 °F 62.6 °F 83% 30.12 in 6.2 mi Calm Calm - N/A   Partly Cloudy
9:00 PM 69 °F 63 °F 75% 30.15 in 6 mi Calm Calm - -   Scattered Clouds
9:20 PM 68.0 °F 62.6 °F 83% 30.12 in 6.2 mi South 2.3 mph - N/A   Scattered Clouds
9:50 PM 68.0 °F 62.6 °F 83% 30.15 in 6.2 mi Calm Calm - N/A   Scattered Clouds
10:20 PM 68.0 °F 62.6 °F 83% 30.15 in 6.2 mi Calm Calm - N/A   Scattered Clouds
10:50 PM 66.2 °F 62.6 °F 88% 30.15 in 6.2 mi Calm Calm - N/A   Scattered Clouds
11:20 PM 66.2 °F 62.6 °F 88% 30.15 in 6.2 mi Calm Calm - N/A   Scattered Clouds
11:50 PM 64.4 °F 60.8 °F 88% 30.15 in 6.2 mi Calm Calm - N/A   Scattered Clouds